This is the latest recevied weather packets stored in our database for station/object KC5TIL-3. If no packets are shown the sender has not sent any weather packets the latest 10 day(s).
| Time | Temp. | Humidity | Pressure | Rain* | Wind** | Luminosity | Snow |
|---|---|---|---|---|---|---|---|
| 1787747396 | 28.33° C | 22% | 1012.8 hPa | 0 mm | 2.24 m/s, 165° | - | - |
| 1787747090 | 28.33° C | 22% | 1012.8 hPa | 0 mm | 1.79 m/s, 224° | - | - |
| 1787746792 | 27.78° C | 22% | 1012.8 hPa | 0 mm | 1.34 m/s, 207° | - | - |
| 1787746494 | 27.78° C | 21% | 1011.8 hPa | 0 mm | 1.79 m/s, 186° | - | - |
| 1787746192 | 28.33° C | 21% | 1011.8 hPa | 0 mm | 2.68 m/s, 232° | - | - |
| 1787745894 | 28.33° C | 21% | 1011.8 hPa | 0 mm | 3.13 m/s, 211° | - | - |
| 1787745596 | 28.33° C | 21% | 1011.8 hPa | 0 mm | 2.24 m/s, 222° | - | - |
| 1787745295 | 28.33° C | 21% | 1011.8 hPa | 0 mm | 2.24 m/s, 172° | - | - |
| 1787744996 | 28.33° C | 21% | 1011.8 hPa | 0 mm | 2.68 m/s, 227° | - | - |
| 1787744698 | 28.33° C | 21% | 1011.8 hPa | 0 mm | 1.79 m/s, 215° | - | - |
| 1787744397 | 28.89° C | 21% | 1011.8 hPa | 0 mm | 2.24 m/s, 227° | - | - |
| 1787744099 | 28.89° C | 21% | 1011.8 hPa | 0 mm | 2.24 m/s, 239° | - | - |
| 1787743800 | 28.33° C | 21% | 1011.8 hPa | 0 mm | 2.24 m/s, 212° | - | - |
| 1787743495 | 28.89° C | 20% | 1011.8 hPa | 0 mm | 2.24 m/s, 223° | - | - |
| 1787743196 | 28.89° C | 20% | 1011.8 hPa | 0 mm | 1.34 m/s, 184° | - | - |
| 1787742898 | 28.89° C | 20% | 1011.8 hPa | 0 mm | 1.79 m/s, 250° | - | - |
| 1787742597 | 28.89° C | 19% | 1011.8 hPa | 0 mm | 2.68 m/s, 207° | - | - |
| 1787742299 | 28.89° C | 19% | 1011.8 hPa | 0 mm | 3.13 m/s, 222° | - | - |
| 1787741991 | 29.44° C | 19% | 1011.8 hPa | 0 mm | 1.34 m/s, 243° | - | - |
| 1787741689 | 29.44° C | 19% | 1011.8 hPa | 0 mm | 3.13 m/s, 238° | - | - |
| 1787741386 | 30° C | 18% | 1011.8 hPa | 0 mm | 1.79 m/s, 267° | - | - |
| 1787741088 | 30° C | 18% | 1011.8 hPa | 0 mm | 2.68 m/s, 183° | - | - |
| 1787740786 | 30° C | 18% | 1011.8 hPa | 0 mm | 3.13 m/s, 216° | - | - |
| 1787740488 | 30° C | 19% | 1011.8 hPa | 0 mm | 3.58 m/s, 230° | - | - |
| 1787740190 | 30° C | 19% | 1011.8 hPa | 0 mm | 3.13 m/s, 198° | - | - |
* Rain latest hour (hover to see other rain measurements)
** Current wind speed in m/s (hover to see current wind gust speed)